Total_Precipitation_Accumulation
0.45 0.36 0.44 0.49 0.44 0.45 0.69 0.72 0.63 0.38 0.33 0.36 0.35 0.34 0.35 0.35 0.35 0.32 0.32 0.35 0.40 0.46 0.51 0.56 0.64 0.73 0.78 0.81 0.83 0.87 0.97 1.03 1.07 1.10 1.16 1.19 1.17 1.28 1.44 1.40 1.25 1.17 1.15 1.21
0.40 0.29 0.35 0.39 0.32 0.35 0.41 0.43 0.41 0.30 0.32 0.34 0.33 0.28 0.30 0.33 0.36 0.38 0.38 0.39 0.41 0.46 0.50 0.57 0.65 0.75 0.86 0.86 0.84 0.80 0.87 0.95 1.02 1.11 1.24 1.24 1.18 1.22 1.34 1.41 1.34 1.23 1.16 1.16
0.62 0.31 0.53 0.59 0.41 0.41 0.43 0.43 0.45 0.50 0.43 0.33 0.33 0.33 0.38 0.42 0.44 0.45 0.44 0.45 0.44 0.48 0.53 0.61 0.67 0.76 0.87 0.89 0.87 0.84 0.83 0.89 0.95 1.01 1.18 1.25 1.22 1.28 1.33 1.39 1.45 1.43 1.27 1.16
1.04 0.75 1.03 0.53 0.29 0.32 0.38 0.43 0.48 0.46 0.38 0.37 0.40 0.36 0.37 0.43 0.50 0.51 0.48 0.47 0.47 0.51 0.56 0.59 0.66 0.71 0.78 0.83 0.84 0.88 0.89 0.91 0.95 0.96 1.02 1.16 1.28 1.30 1.32 1.35 1.38 1.44 1.38 1.26
1.56 1.12 0.62 0.29 0.24 0.32 0.43 0.48 0.41 0.37 0.35 0.33 0.30 0.27 0.29 0.31 0.39 0.49 0.50 0.50 0.52 0.55 0.58 0.59 0.61 0.65 0.75 0.81 0.82 0.90 0.97 0.97 0.94 0.90 0.94 1.05 1.17 1.28 1.32 1.34 1.29 1.30 1.31 1.30
1.78 1.36 0.64 0.37 0.23 0.22 0.35 0.58 0.36 0.33 0.36 0.33 0.33 0.42 0.35 0.29 0.36 0.46 0.45 0.48 0.53 0.55 0.53 0.56 0.60 0.62 0.73 0.81 0.79 0.88 0.95 0.99 0.91 0.82 0.80 0.84 0.96 1.16 1.28 1.29 1.23 1.23 1.24 1.25
1.50 1.22 0.53 0.34 0.24 0.26 0.56 0.65 0.35 0.33 0.37 0.37 0.43 0.49 0.39 0.34 0.39 0.44 0.41 0.44 0.47 0.49 0.50 0.59 0.64 0.62 0.69 0.77 0.84 0.89 0.94 1.00 0.91 0.81 0.79 0.81 0.88 1.06 1.20 1.28 1.27 1.21 1.17 1.18
1.11 1.28 0.70 0.35 0.36 0.58 0.67 0.38 0.30 0.28 0.29 0.31 0.30 0.28 0.27 0.31 0.36 0.39 0.36 0.37 0.39 0.43 0.48 0.55 0.62 0.65 0.70 0.77 0.83 0.91 0.96 0.94 0.93 0.89 0.85 0.86 0.91 1.04 1.17 1.25 1.32 1.27 1.17 1.14
0.82 0.72 0.49 0.39 0.48 0.51 0.43 0.33 0.26 0.27 0.25 0.24 0.24 0.24 0.28 0.31 0.33 0.36 0.36 0.36 0.36 0.41 0.45 0.51 0.58 0.65 0.75 0.81 0.80 0.87 0.92 0.95 0.95 0.95 0.92 0.93 0.97 1.06 1.18 1.25 1.30 1.28 1.20 1.13
0.58 0.39 0.32 0.33 0.36 0.36 0.31 0.27 0.23 0.24 0.23 0.22 0.22 0.22 0.26 0.30 0.30 0.32 0.34 0.34 0.36 0.39 0.42 0.51 0.58 0.62 0.72 0.79 0.77 0.77 0.82 0.91 0.91 0.94 0.99 1.02 1.05 1.08 1.16 1.26 1.33 1.23 1.16 1.08
0.52 0.32 0.28 0.27 0.28 0.29 0.24 0.21 0.20 0.21 0.21 0.22 0.22 0.23 0.25 0.29 0.29 0.32 0.37 0.38 0.39 0.42 0.44 0.52 0.59 0.66 0.73 0.74 0.72 0.72 0.75 0.87 0.95 0.99 1.04 1.08 1.09 1.13 1.20 1.21 1.35 1.32 1.18 1.10
0.50 0.33 0.37 0.32 0.26 0.25 0.24 0.23 0.24 0.23 0.23 0.20 0.23 0.27 0.26 0.28 0.30 0.34 0.38 0.41 0.41 0.43 0.47 0.53 0.60 0.72 0.75 0.71 0.69 0.72 0.76 0.83 0.93 1.01 1.03 1.02 1.01 1.07 1.24 1.26 1.29 1.26 1.20 1.16
0.32 0.28 0.28 0.26 0.24 0.24 0.23 0.22 0.23 0.24 0.25 0.24 0.22 0.25 0.29 0.31 0.30 0.33 0.37 0.41 0.47 0.50 0.55 0.58 0.62 0.71 0.75 0.71 0.68 0.70 0.77 0.82 0.89 0.98 0.97 0.93 0.89 0.91 1.02 1.19 1.29 1.27 1.24 1.19
0.18 0.21 0.23 0.20 0.19 0.18 0.18 0.18 0.19 0.19 0.20 0.21 0.22 0.23 0.27 0.29 0.28 0.30 0.36 0.43 0.50 0.53 0.55 0.59 0.63 0.70 0.74 0.69 0.67 0.69 0.73 0.84 0.89 0.93 0.95 0.93 0.90 0.89 0.91 1.00 1.13 1.20 1.24 1.21
0.12 0.15 0.18 0.15 0.14 0.14 0.14 0.15 0.16 0.16 0.16 0.16 0.17 0.21 0.24 0.29 0.31 0.33 0.39 0.45 0.51 0.53 0.55 0.60 0.67 0.76 0.76 0.70 0.67 0.69 0.76 0.81 0.82 0.88 0.93 0.94 0.93 0.95 0.97 0.99 1.03 1.08 1.14 1.28
0.13 0.14 0.15 0.15 0.16 0.15 0.15 0.15 0.16 0.15 0.16 0.17 0.17 0.19 0.22 0.28 0.34 0.40 0.45 0.49 0.54 0.58 0.61 0.64 0.70 0.79 0.76 0.69 0.68 0.69 0.78 0.89 0.87 0.88 0.93 0.96 0.96 1.01 1.06 1.09 1.10 1.07 1.08 1.19
0.20 0.19 0.17 0.16 0.15 0.15 0.16 0.17 0.17 0.16 0.17 0.17 0.19 0.19 0.21 0.25 0.31 0.38 0.44 0.51 0.58 0.62 0.64 0.65 0.71 0.75 0.75 0.73 0.71 0.70 0.74 0.82 0.91 0.89 0.87 0.91 0.96 1.01 1.06 1.13 1.14 1.07 1.01 1.11
0.23 0.22 0.18 0.18 0.17 0.16 0.15 0.15 0.15 0.18 0.19 0.20 0.20 0.22 0.24 0.28 0.33 0.40 0.47 0.51 0.54 0.59 0.64 0.67 0.73 0.75 0.76 0.79 0.76 0.73 0.76 0.80 0.82 0.84 0.87 0.93 0.99 1.01 1.07 1.13 1.12 1.09 1.06 1.13
0.18 0.18 0.16 0.16 0.16 0.16 0.16 0.16 0.17 0.19 0.20 0.21 0.22 0.24 0.27 0.31 0.37 0.44 0.50 0.51 0.51 0.55 0.63 0.67 0.75 0.71 0.73 0.82 0.82 0.78 0.82 0.86 0.87 0.84 0.85 0.98 1.04 1.02 1.06 1.10 1.13 1.12 1.13 1.15
0.18 0.16 0.15 0.14 0.14 0.15 0.17 0.18 0.17 0.18 0.19 0.21 0.25 0.26 0.28 0.32 0.37 0.43 0.49 0.51 0.54 0.61 0.62 0.67 0.68 0.67 0.69 0.80 0.86 0.81 0.85 0.90 0.91 0.88 0.86 0.92 0.99 1.03 1.05 1.08 1.12 1.14 1.15 1.17
0.18 0.16 0.14 0.14 0.14 0.15 0.17 0.18 0.18 0.18 0.19 0.22 0.27 0.31 0.34 0.38 0.40 0.43 0.45 0.46 0.48 0.53 0.55 0.60 0.61 0.65 0.68 0.81 0.90 0.86 0.87 0.88 0.91 0.90 0.91 0.93 0.97 1.02 1.04 1.06 1.09 1.12 1.15 1.17
0.19 0.18 0.17 0.15 0.16 0.17 0.19 0.20 0.22 0.22 0.23 0.24 0.28 0.33 0.36 0.39 0.40 0.41 0.42 0.45 0.48 0.54 0.53 0.52 0.55 0.64 0.72 0.81 0.82 0.82 0.83 0.84 0.88 0.92 0.95 0.96 1.01 1.07 1.06 1.05 1.11 1.12 1.12 1.15
0.20 0.20 0.20 0.21 0.21 0.22 0.21 0.21 0.24 0.26 0.26 0.28 0.30 0.35 0.38 0.40 0.40 0.41 0.44 0.44 0.48 0.56 0.55 0.55 0.62 0.70 0.78 0.76 0.74 0.77 0.79 0.82 0.86 0.91 0.97 1.00 1.02 1.07 1.10 1.10 1.11 1.12 1.16 1.18
0.23 0.22 0.23 0.24 0.25 0.25 0.24 0.23 0.25 0.28 0.31 0.33 0.34 0.36 0.40 0.41 0.40 0.41 0.46 0.53 0.57 0.61 0.59 0.65 0.72 0.76 0.80 0.74 0.72 0.76 0.81 0.86 0.89 0.95 1.00 1.03 1.05 1.08 1.09 1.09 1.11 1.10 1.12 1.15
0.27 0.26 0.25 0.26 0.27 0.29 0.30 0.29 0.28 0.30 0.31 0.34 0.36 0.38 0.42 0.46 0.50 0.50 0.51 0.56 0.62 0.66 0.65 0.71 0.77 0.79 0.76 0.75 0.76 0.80 0.88 0.93 1.00 1.10 1.13 1.09 1.08 1.09 1.05 1.03 1.07 1.11 1.11 1.10
0.32 0.32 0.32 0.32 0.34 0.35 0.35 0.34 0.33 0.32 0.32 0.35 0.39 0.42 0.47 0.51 0.54 0.56 0.57 0.60 0.63 0.68 0.69 0.70 0.74 0.78 0.79 0.84 0.87 0.90 0.97 1.02 1.06 1.07 1.03 1.03 1.02 1.02 0.99 0.97 0.99 1.04 1.06 1.05
0.37 0.37 0.37 0.38 0.39 0.39 0.41 0.42 0.43 0.43 0.42 0.45 0.50 0.50 0.52 0.56 0.60 0.63 0.64 0.65 0.67 0.69 0.72 0.75 0.78 0.83 0.88 0.92 0.96 1.00 1.03 1.04 1.05 1.04 1.01 1.02 1.02 0.99 0.97 0.97 0.98 1.00 1.00 0.98